Temp
8 9 9 9 9 10 10 9 10 10 11 12 12 11 10 10 10 10 10 11 12 11 11 11 11 11 10 10 10 10 9 8 8 7 7 7 7 6
8 9 9 9 9 9 10 10 9 9 10 12 11 10 8 7 8 8 9 10 10 10 10 10 10 10 9 9 9 8 7 7 6 6 6 6 6 6
7 8 9 9 9 10 9 9 9 9 9 9 9 7 6 6 7 7 7 8 8 9 9 9 9 9 9 8 8 7 7 6 5 5 5 5 5 5
7 7 8 8 8 9 9 9 9 9 9 9 8 7 5 5 6 6 6 7 7 6 7 7 7 6 6 6 6 6 5 5 4 4 3 3 3 4
7 7 7 7 8 8 9 9 9 9 8 8 6 5 4 4 4 5 5 5 5 4 4 5 5 4 4 4 4 4 4 4 3 3 2 2 2 2
7 7 7 7 7 8 8 8 8 8 8 8 5 3 3 3 3 3 3 3 3 3 3 3 3 3 2 2 3 3 3 3 2 2 1 1 1 1
7 7 7 7 7 7 7 7 8 8 7 5 3 2 2 1 1 2 1 1 1 1 2 1 2 2 2 1 1 1 2 2 1 1 1 1 1 0
4 5 5 5 5 6 6 7 7 7 6 5 3 3 2 1 1 1 0 -0 -0 -0 0 0 1 1 0 -0 1 1 1 1 1 0 0 0 0 0
3 4 3 4 4 4 4 4 4 5 5 4 4 3 2 2 1 -0 0 0 -1 -1 -0 -1 -0 0 0 0 1 1 1 1 1 -0 -1 -1 -1 -1
3 2 2 3 3 3 2 2 2 2 3 3 3 2 2 1 1 1 0 -0 -1 -1 -1 1 -0 0 1 1 1 1 1 1 1 0 -1 -1 -1 -1
2 2 2 2 2 3 2 1 0 -0 0 2 3 2 2 1 2 1 -0 -0 -1 -1 -0 1 0 1 0 0 0 1 1 1 1 0 -1 -1 -2 -2
2 1 1 2 2 2 2 1 0 -0 -0 0 0 0 0 -0 0 1 0 1 1 -0 0 0 0 0 0 0 0 1 1 1 1 0 -1 -1 -2 -2
1 1 0 1 2 2 2 1 0 1 1 1 0 0 0 1 1 1 1 1 1 -0 0 0 -1 -0 -0 -0 -0 -0 -0 -1 -1 -1 -2 -2 -3 -3
1 0 0 1 2 3 2 1 1 1 1 1 1 0 0 0 0 1 1 1 1 1 0 0 0 -1 -1 -2 -1 -1 -1 -1 -2 -2 -3 -3 -3 -3
1 1 1 2 2 2 2 2 2 2 1 1 -0 -0 -0 -0 -0 -0 -0 0 0 0 -0 -0 -1 -1 -2 -3 -3 -2 -3 -3 -3 -3 -3 -3 -4 -4
1 2 2 2 2 2 2 2 2 1 1 0 -0 -0 -1 -1 -0 -1 -1 -1 -1 -1 -1 -1 -2 -3 -3 -4 -4 -4 -4 -4 -3 -4 -4 -4 -5 -5
1 2 1 1 1 1 0 0 -0 0 -0 -1 -1 -1 -1 -1 -2 -2 -2 -2 -3 -3 -3 -3 -3 -4 -4 -5 -5 -5 -4 -4 -4 -4 -4 -4 -5 -5
2 1 1 0 -0 -0 -1 -1 -1 -1 -2 -2 -2 -2 -3 -3 -3 -3 -3 -4 -4 -3 -3 -3 -4 -5 -5 -4 -4 -4 -4 -4 -4 -5 -5 -5 -6 -6
1 -0 -1 -1 -1 -2 -2 -2 -3 -3 -3 -4 -4 -4 -4 -4 -4 -4 -4 -4 -4 -4 -4 -4 -5 -5 -6 -6 -4 -4 -4 -5 -5 -6 -6 -6 -6 -6
-1 -2 -2 -2 -3 -3 -4 -4 -4 -4 -5 -5 -5 -6 -6 -6 -6 -6 -6 -6 -6 -5 -5 -5 -5 -5 -6 -6 -7 -7 -6 -6 -6 -7 -7 -7 -7 -7
-3 -3 -4 -4 -5 -5 -5 -5 -6 -6 -6 -7 -7 -7 -7 -7 -7 -7 -7 -6 -6 -6 -7 -7 -7 -7 -7 -8 -8 -7 -7 -6 -6 -6 -7 -7 -7 -7
-5 -5 -6 -6 -6 -7 -7 -7 -7 -7 -8 -8 -8 -8 -8 -7 -7 -7 -7 -7 -7 -7 -7 -7 -7 -7 -8 -8 -8 -8 -8 -7 -6 -7 -7 -6 -7 -6
-6 -6 -6 -6 -6 -7 -8 -8 -8 -8 -8 -8 -8 -8 -8 -8 -7 -7 -7 -7 -7 -7 -7 -7 -8 -7 -7 -7 -7 -7 -7 -7 -7 -6 -6 -6 -6 -5
Height
777 776 776 776 776 775 774 774 776 769 770 768 769 770 770 769 770 772 773 774 776 777 780 783 785 786 790 795 799 802 806 811 816 820 822 824 826 828
773 772 771 771 771 770 770 770 770 771 769 765 766 765 767 767 768 770 771 772 775 777 778 780 782 784 787 789 795 799 803 808 814 817 819 821 822 824
770 768 768 767 766 766 765 765 765 765 765 765 763 764 765 765 767 768 770 772 773 776 777 778 780 782 787 792 793 799 801 806 810 814 817 817 817 820
765 764 763 763 762 762 760 760 760 760 760 760 760 761 763 763 765 767 769 770 773 775 776 778 780 782 787 789 792 796 799 803 807 812 813 813 813 816
760 759 758 758 758 757 756 756 755 755 756 755 756 758 759 761 762 764 767 770 771 775 776 777 780 784 786 788 791 794 797 800 805 807 807 808 813 812
756 755 754 753 753 753 752 751 751 749 750 750 751 753 756 757 759 759 764 767 769 772 775 776 779 781 784 787 790 793 797 799 801 803 805 807 808 807
754 752 751 750 749 748 747 746 746 745 746 745 749 751 752 755 757 757 760 765 768 771 773 776 778 781 784 786 790 793 796 797 798 799 800 802 802 803
755 752 750 749 747 745 744 741 742 742 741 745 745 747 749 751 753 757 760 765 770 771 774 776 779 781 783 786 789 791 793 793 794 795 797 798 798 799
756 753 752 751 750 748 746 744 743 743 742 743 743 746 748 749 753 756 759 765 768 772 774 777 779 781 783 785 787 789 790 790 791 793 794 794 794 796
759 758 757 755 753 752 751 748 748 746 745 744 746 748 749 751 754 757 762 765 770 773 775 778 780 782 783 783 785 786 787 787 788 789 790 790 790 791
764 762 761 759 758 756 755 754 754 754 753 751 751 752 755 757 759 761 766 768 773 776 777 778 780 782 783 783 783 783 784 785 786 786 787 787 787 787
768 766 764 762 762 762 761 762 760 762 761 759 759 760 761 763 765 767 769 771 772 775 777 779 780 781 782 782 782 782 783 783 784 784 784 783 783 782
771 770 769 767 765 765 766 765 766 767 766 765 766 766 766 767 768 770 771 772 772 774 776 778 779 780 780 781 781 781 781 781 781 780 780 779 778 778
774 774 774 773 771 771 771 772 771 771 770 770 769 770 771 772 773 773 773 774 774 775 777 778 779 780 780 780 780 779 779 779 778 776 775 774 773 772
777 777 778 778 777 776 776 775 775 775 774 774 774 775 775 775 776 776 776 776 777 777 778 779 779 779 779 779 779 777 777 774 773 771 770 769 768 766
782 782 782 782 782 781 780 779 779 779 779 778 778 778 778 778 778 778 778 778 777 777 778 778 778 777 777 777 777 774 773 772 768 767 766 763 762 761
786 786 785 785 786 785 784 784 784 783 782 782 781 781 780 780 779 779 779 778 779 778 778 777 776 776 775 775 773 771 768 765 764 763 762 758 755 754
788 788 787 787 788 788 788 787 786 786 785 784 783 782 782 781 781 780 779 779 778 778 777 776 775 774 772 770 769 765 764 762 760 759 757 754 748 746
789 790 790 790 790 790 789 789 788 787 786 785 784 784 783 782 781 781 780 779 778 777 776 775 774 773 771 769 767 766 761 759 757 754 753 749 744 736
791 791 792 792 792 791 791 791 790 789 788 787 786 786 785 784 783 782 781 780 779 777 775 774 773 771 770 768 765 759 759 756 753 749 745 741 735 730
793 793 793 793 793 792 792 792 792 791 790 789 789 788 787 786 785 784 782 781 779 778 776 774 773 772 769 766 763 756 751 751 749 744 739 736 729 722
794 794 795 795 794 793 793 793 793 793 792 791 791 790 789 787 786 785 783 782 780 778 776 773 771 768 766 764 759 754 748 742 740 737 734 732 727 717
796 796 796 795 794 794 794 794 794 794 793 793 792 791 789 788 787 785 784 782 780 777 774 771 768 766 763 760 756 751 745 738 733 728 722 721 717 713
Wind_Speed
21 21 19 22 21 19 17 19 14 4 4 11 13 13 14 16 16 18 18 12 12 17 20 16 19 19 26 25 17 17 17 16 14 13 11 11 13 14
19 19 19 19 20 21 20 17 16 14 5 8 11 11 15 13 11 11 12 14 18 20 20 17 16 18 17 24 22 21 20 13 11 10 10 12 13 15
18 19 20 21 21 20 20 19 17 17 11 10 9 11 8 9 9 11 10 11 12 14 16 14 17 17 20 20 18 16 12 11 10 11 11 10 10 13
19 18 19 19 19 22 22 21 19 17 16 15 11 15 12 11 11 11 11 11 11 12 14 14 12 14 15 15 14 13 13 12 11 11 10 9 10 12
22 20 21 20 19 19 19 19 19 18 20 16 14 15 16 14 14 13 12 13 15 11 8 12 12 11 11 10 10 12 11 11 12 13 11 10 12 12
16 17 18 18 22 21 22 22 21 20 19 19 11 7 10 9 14 17 15 14 15 13 11 11 10 9 7 6 6 7 11 12 11 11 11 12 12 12
8 8 9 13 16 19 20 22 20 19 18 15 7 7 9 7 14 12 9 14 10 11 10 8 7 8 7 6 6 9 10 11 12 12 11 11 12 12
7 9 8 7 7 5 5 7 16 17 18 12 10 6 11 11 15 15 15 6 2 9 9 7 7 6 3 4 9 14 12 11 11 11 11 11 12 13
12 12 13 13 11 10 9 6 5 1 4 9 7 5 8 11 14 14 14 11 5 8 9 4 6 7 7 11 11 11 11 9 9 10 11 12 13 16
15 13 13 13 12 11 14 18 21 19 14 12 10 7 5 8 10 13 16 13 11 10 9 3 4 5 6 6 6 7 7 8 9 10 11 12 12 11
15 14 12 14 14 13 17 20 23 24 22 20 19 17 15 13 12 15 14 13 4 3 7 3 4 4 4 4 5 3 4 3 5 7 8 9 11 12
13 15 15 13 13 14 16 15 19 15 15 17 20 20 18 16 12 6 11 7 7 3 6 5 5 3 2 3 3 2 4 6 7 10 13 14 13 16
14 16 18 18 17 15 16 19 17 15 17 19 19 17 16 14 12 10 7 5 6 4 7 5 5 3 1 1 4 6 7 7 10 12 13 14 15 15
14 15 18 18 21 21 20 16 15 13 14 14 15 14 13 12 10 9 8 7 5 4 7 3 2 3 2 2 4 5 9 12 13 15 14 14 15 16
16 16 15 16 17 17 16 14 14 14 14 14 13 11 9 8 6 6 6 5 4 2 1 3 5 6 7 6 5 10 10 9 19 17 16 17 20 22
14 17 16 15 14 13 13 14 14 13 12 11 9 7 6 6 5 5 5 5 6 6 5 6 7 9 10 11 12 19 18 11 16 18 18 20 21 21
10 10 10 10 11 12 12 12 11 11 11 9 8 7 6 6 6 7 7 7 5 6 7 9 9 10 13 15 17 20 22 23 20 19 19 25 26 25
7 8 9 9 10 9 10 9 10 10 10 9 8 8 8 8 8 8 9 8 8 9 9 9 9 11 11 14 16 21 21 22 22 19 21 22 26 26
8 8 9 9 9 9 10 10 10 11 9 10 10 10 10 9 9 9 9 10 11 12 13 14 12 9 5 6 15 15 23 22 23 23 23 24 26 32
9 9 8 8 9 9 9 10 10 11 11 11 12 12 12 11 11 11 11 12 12 14 14 12 12 8 8 6 11 25 23 22 23 25 26 27 30 32
7 7 6 6 7 8 9 10 10 10 11 10 11 10 11 11 10 11 11 11 12 11 12 12 14 15 17 17 14 21 25 19 21 27 29 26 29 29
7 7 7 7 8 8 9 9 9 9 10 10 10 10 10 10 10 11 12 13 12 12 13 15 15 14 14 13 17 22 24 29 29 26 24 25 27 9
6 6 6 7 8 8 8 8 8 8 8 8 8 9 10 10 10 10 11 12 13 15 14 16 15 15 17 19 20 21 26 29 27 28 32 23 24 29
Wind_Direction
269 265 251 261 264 261 256 249 268 246 249 248 232 241 240 239 238 241 249 254 229 242 217 238 227 231 230 215 208 197 192 178 186 208 226 241 247 251
272 271 266 260 259 260 259 255 244 253 263 239 255 212 232 239 239 234 230 234 232 237 234 234 224 196 173 182 184 174 177 194 218 240 247 247 249 252
279 274 272 270 273 270 262 253 248 234 247 269 229 245 247 230 222 220 211 218 230 238 238 223 199 200 198 191 187 195 205 225 246 257 247 247 249 253
272 273 271 271 270 271 265 257 251 247 241 250 229 227 233 216 211 210 208 204 210 213 218 213 196 181 186 190 200 215 229 240 249 243 242 252 256 256
276 270 277 277 270 273 279 277 261 247 249 238 214 223 227 215 198 193 189 181 177 154 179 205 192 191 198 206 220 231 238 240 245 243 250 253 251 251
286 280 283 274 280 273 283 280 276 252 240 223 198 192 207 215 205 185 175 178 171 178 180 177 176 171 169 191 225 245 246 243 229 232 241 251 251 253
295 293 292 291 280 277 278 278 276 247 230 204 178 182 192 191 202 191 169 181 174 186 183 184 192 194 206 205 230 248 252 245 238 245 251 253 258 261
30 38 35 38 30 344 323 266 258 241 221 218 193 191 211 203 196 186 163 140 140 195 190 193 217 214 189 248 240 238 244 247 250 254 253 254 257 258
51 48 43 37 32 34 41 42 49 339 249 235 208 204 193 199 192 171 165 142 126 167 168 177 214 213 213 235 244 246 246 245 244 245 250 255 259 261
50 47 51 50 49 61 72 75 68 63 70 87 97 109 122 149 176 175 156 133 116 137 141 137 206 209 224 227 237 231 237 248 252 253 260 264 266 263
46 58 58 60 58 70 82 80 74 67 70 82 83 89 95 109 115 134 134 129 116 146 171 125 163 164 201 200 255 226 209 223 279 274 262 261 266 268
55 49 55 66 66 61 64 64 67 59 70 76 80 84 90 90 93 103 132 126 116 124 186 159 163 168 186 214 210 221 266 286 289 285 280 278 275 278
64 60 58 65 74 81 84 80 77 77 76 79 81 82 85 90 97 117 129 131 112 93 165 175 170 177 156 231 254 251 263 264 286 291 287 283 280 276
74 74 74 78 82 80 74 70 74 79 81 81 79 74 76 78 81 84 84 82 81 92 160 188 176 200 210 275 265 268 281 290 294 295 293 287 279 281
91 89 81 76 77 71 66 69 70 65 64 65 65 66 69 74 69 63 55 46 41 43 255 267 274 269 255 239 271 277 301 292 294 287 287 287 287 291
86 82 71 65 62 64 62 58 57 54 55 59 57 54 45 36 26 17 3 351 338 322 312 294 280 271 269 271 269 276 283 274 286 288 286 283 282 282
74 71 66 56 50 43 43 46 43 43 43 39 35 24 12 1 350 341 335 332 326 310 309 311 306 286 272 272 276 276 280 281 284 290 292 292 290 288
76 63 57 52 47 40 39 36 32 29 26 22 17 8 1 354 346 341 343 339 321 320 317 315 306 306 301 293 280 280 286 283 292 290 288 285 289 288
76 65 59 51 43 38 36 32 27 18 19 20 20 15 10 7 3 357 352 343 332 328 324 319 316 302 292 283 295 292 279 283 287 290 288 286 283 285
74 68 57 46 40 37 32 28 25 26 28 29 27 21 16 9 4 358 352 342 334 329 326 332 327 308 310 322 309 295 296 285 283 282 286 289 285 289
70 66 61 53 45 39 34 33 34 31 27 23 20 13 9 5 3 358 351 347 345 347 341 337 325 316 308 311 292 290 303 297 286 282 286 287 291 296
62 58 51 48 44 38 36 36 34 30 27 22 16 14 8 8 3 359 357 349 345 335 326 320 323 322 314 304 295 297 300 307 312 304 286 278 276 277
64 61 55 46 42 40 43 41 38 31 23 15 13 11 11 13 9 0 351 343 335 329 325 321 320 317 306 293 293 299 299 301 304 306 303 299 287 282